Location: Le Rouget
(44.8538°N, 2.2328°E)
Time: 05:51:52
(UTC+00:00)

Cosmos 1825 Rocket - Pass Details

Date: 15 May 2026
Orbit: 598 x 622 km, 82.5° (Epoch: 6 June)

Event Time Altitude Azimuth Distance (km) Brightness Sun altitude
Rises 22:06:31 0° 345° (NNW) 2,873 8.4 -22.1°
Reaches altitude 10° 22:08:48 10° 339° (NNW) 1,968 7.3 -22.3°
Maximum altitude 22:12:56 45° 267° (W) 843 4.3 -22.6°
Enters shadow 22:13:52 38° 232° (SW) 933 4.3 -22.6°
